Location: Aytr�
(46.1357°N, 1.1145°W)
Time: 14:45:30
(UTC+00:00)

Lacrosse 4 Rocket - Pass Details

Date: 03 March 2021
Orbit: 537 x 620 km, 68.0° (Epoch: 17 April)

Event Time Altitude Azimuth Distance (km) Brightness Sun altitude
Rises 19:09:45 0° 173° (S) 2,812 4.8 -13.9°
Reaches altitude 10° 19:12:22 10° 157° (SSE) 1,931 3.8 -14.4°
Enters shadow 19:14:28 19° 131° (SE) 1,445 3.0 -14.8°
